Wind_Speed
19 20 19 18 16 17 16 15 13 13 13 13 11 10 8 8 8 10 10 12 13 15 14 16 14 12 10 9 9 11 11 11 10 11 12 15 18 21 22 27 28 25 26 29 29 31 34 28 26 26 31 22 23 23
22 20 18 17 16 17 16 16 15 14 13 12 11 11 10 10 12 14 15 16 16 18 17 16 14 15 17 15 19 19 15 11 9 9 11 11 16 19 21 31 23 30 28 32 32 37 35 34 37 32 29 34 41 39
19 17 18 17 16 16 16 16 15 13 13 13 13 13 13 13 13 13 14 15 16 19 19 13 5 4 18 18 20 22 19 18 18 17 20 20 22 22 29 31 30 28 26 32 34 42 40 38 37 37 37 40 40 33
16 17 17 16 16 16 16 15 14 14 14 13 14 13 11 10 12 11 12 12 14 18 26 19 14 13 15 15 14 15 17 21 21 22 25 28 26 22 30 33 34 34 30 33 40 39 35 30 28 28 26 23 24 25
15 14 15 15 15 15 14 15 15 15 13 13 12 11 11 12 14 15 14 13 15 12 17 24 20 9 8 11 14 16 20 21 24 29 29 27 25 27 33 33 47 32 33 34 41 27 32 36 31 27 27 24 22 23
15 15 14 15 15 14 14 14 13 13 13 11 10 10 10 11 10 11 13 14 15 17 17 19 14 13 6 5 4 14 14 16 21 24 29 33 30 29 29 35 39 28 25 26 37 35 34 36 35 28 25 22 23 24
15 14 13 14 15 14 13 13 12 10 9 8 7 6 8 8 8 9 12 11 10 12 13 13 13 3 4 13 18 18 17 19 20 26 31 29 25 29 37 46 21 33 35 32 29 29 34 30 32 27 24 25 24 24
16 15 14 14 14 14 14 12 10 9 7 7 6 6 7 6 7 8 10 10 10 11 14 9 14 18 15 15 8 6 11 15 24 28 34 31 24 25 34 34 31 27 26 27 31 31 34 35 34 30 28 28 29 30
17 15 14 14 13 12 12 10 9 7 6 6 7 7 6 7 7 7 7 10 13 13 12 16 20 12 5 9 17 21 19 22 21 26 23 17 20 22 34 28 27 25 22 28 29 28 31 32 34 34 28 26 27 29
15 14 13 13 12 11 10 9 8 7 6 9 8 6 6 5 5 7 12 14 13 9 13 13 9 13 11 13 14 13 13 11 12 16 10 21 28 28 23 25 23 25 26 29 34 40 36 33 31 34 30 23 25 27
15 14 13 13 12 11 10 8 8 9 9 8 7 6 4 3 6 9 6 4 4 5 7 8 13 16 20 22 25 18 10 11 9 9 9 8 17 12 20 22 24 27 26 31 33 34 35 31 28 27 31 31 30 28
16 15 14 13 12 11 10 10 10 8 10 8 6 4 6 5 4 4 4 4 5 4 10 21 26 29 30 32 16 10 11 6 7 8 5 4 10 21 27 28 29 29 28 34 28 27 20 20 18 18 18 21 21 19
16 15 14 13 12 11 12 12 13 11 9 7 4 3 3 3 5 4 3 4 6 16 23 28 31 30 26 10 8 7 6 7 8 5 5 8 24 29 28 28 29 29 30 30 27 19 16 17 14 10 8 9 11 12
16 14 14 14 13 13 14 14 12 10 8 7 5 4 3 4 4 3 6 11 17 24 26 25 27 22 13 8 8 5 7 6 5 3 10 23 29 31 32 32 31 29 29 26 22 19 15 13 8 5 7 7 8 9
17 15 15 16 14 14 14 13 10 10 11 7 4 4 4 5 7 9 12 16 20 21 21 24 20 10 7 7 5 6 5 5 0 13 28 32 32 33 33 33 29 27 29 23 18 19 14 10 4 4 5 6 4 8
17 18 17 15 16 13 14 10 9 10 12 9 8 5 4 7 5 12 13 17 17 17 19 18 11 6 5 4 6 7 5 4 18 29 31 30 32 32 30 26 26 26 28 23 15 15 10 6 3 2 5 5 8 5
16 17 16 16 15 14 12 10 8 11 7 7 6 3 4 10 11 10 13 16 17 18 18 15 6 4 9 7 7 6 11 25 31 29 26 27 30 30 27 23 24 24 26 23 13 9 5 7 8 4 4 7 6 12
15 14 14 14 14 15 11 10 9 9 13 16 14 7 8 9 10 9 15 16 18 21 20 13 16 18 8 9 13 21 23 25 31 25 22 23 24 24 26 26 24 23 24 24 13 10 9 8 7 4 1 2 4 8
11 12 10 9 12 12 11 11 15 15 17 14 10 9 10 9 12 17 19 21 22 22 21 19 9 13 17 20 25 26 28 31 27 24 21 21 23 23 24 25 26 26 24 22 19 13 12 9 8 7 7 8 8 8
13 12 11 10 11 11 11 11 16 15 11 9 10 10 12 18 20 20 19 18 17 18 19 17 20 18 19 21 23 24 26 26 27 28 26 24 27 27 27 27 27 27 26 24 20 18 16 16 13 11 11 11 11 11
10 10 11 11 11 13 16 13 11 11 12 14 16 17 22 21 20 17 16 17 19 22 26 19 16 21 22 23 24 26 29 27 29 31 33 32 30 31 32 31 30 28 28 26 23 20 19 19 18 21 17 17 17 17
7 6 6 7 10 14 16 18 18 19 20 21 22 21 22 20 16 17 17 18 20 22 24 25 25 26 28 30 31 30 31 29 31 33 32 34 36 35 33 36 36 32 29 27 27 24 21 21 22 26 23 24 22 22
3 5 7 10 12 12 14 17 19 20 22 21 20 20 18 20 23 22 17 22 26 27 28 32 32 34 34 34 34 32 33 32 33 32 32 34 36 37 42 38 34 31 28 27 27 27 25 23 20 24 27 28 28 27
8 12 12 8 9 10 15 16 18 19 20 20 22 24 25 24 25 27 28 26 26 26 27 28 30 30 29 30 29 29 31 31 32 32 34 39 40 43 39 35 32 30 30 27 27 27 27 25 23 21 25 28 31 31
11 11 8 12 12 12 18 21 22 21 23 26 26 26 25 28 23 24 34 27 25 25 26 26 29 29 29 30 29 28 32 38 38 38 39 41 43 39 34 31 29 27 29 29 27 27 26 26 24 22 23 26 27 30
9 9 9 10 11 14 18 21 25 24 30 32 27 24 20 28 25 24 23 25 27 26 26 32 31 34 31 33 37 43 45 43 41 42 44 39 35 35 34 32 31 26 26 27 29 28 26 25 24 23 24 24 28 29
18 18 22 23 22 25 27 30 31 32 31 28 27 27 23 21 21 26 27 25 27 30 38 44 48 49 51 53 51 46 45 45 45 45 42 33 31 32 33 33 32 31 30 28 26 27 27 27 28 25 24 26 26 29
23 27 25 23 23 24 23 25 28 28 28 28 29 26 25 29 33 32 40 49 55 53 46 39 38 46 43 40 40 42 40 35 31 30 30 28 29 30 31 32 32 31 32 32 31 30 26 26 28 29 28 26 26 27
20 21 22 25 27 30 32 33 32 32 37 37 39 40 45 53 59 54 46 43 43 42 42 41 39 35 31 29 31 30 27 26 28 29 29 28 26 24 27 29 30 28 29 29 28 30 30 28 28 28 30 29 26 26
21 21 25 27 29 32 31 32 36 38 41 43 46 49 47 44 36 38 37 34 32 30 27 24 23 23 22 21 17 18 21 23 26 27 29 28 28 28 28 28 27 25 24 25 27 27 25 26 28 28 27 27 26 27
21 26 32 37 37 34 33 34 36 35 30 29 28 32 32 26 22 19 19 19 19 18 16 16 14 11 11 12 14 17 19 22 24 27 29 29 28 28 28 26 26 24 22 23 26 26 23 22 25 26 25 25 24 24
33 35 33 33 32 30 29 30 31 30 28 23 23 13 11 12 13 17 20 18 13 9 8 7 7 9 11 14 18 21 24 27 29 31 33 34 33 30 29 25 24 23 22 23 23 23 22 22 21 22 23 23 21 20
35 30 25 25 28 28 28 32 34 33 28 19 11 10 11 14 16 18 20 17 13 13 14 16 18 19 19 22 25 28 30 32 34 35 36 36 34 31 29 26 24 22 22 22 20 21 20 20 19 19 19 18 19 20
Wind_Direction
186 182 186 178 183 186 187 191 191 185 184 187 193 200 217 229 239 254 257 263 273 281 283 277 269 267 264 277 277 276 291 276 257 243 253 260 261 262 264 263 262 262 264 260 262 260 266 277 277 258 265 265 255 278
184 184 184 182 183 184 186 186 186 191 195 201 213 228 239 251 254 259 265 268 271 277 280 281 275 266 265 268 272 268 259 260 250 246 257 260 258 268 269 271 269 264 257 267 259 264 266 269 273 273 267 270 275 284
174 171 175 177 181 186 191 193 197 204 214 224 233 243 254 253 250 252 259 273 277 281 290 290 210 284 283 267 259 262 272 281 258 267 265 263 260 268 268 269 277 273 273 265 274 270 273 279 278 275 273 272 275 276
176 177 179 180 183 188 194 201 210 218 229 236 246 247 237 239 255 258 256 262 270 283 280 287 278 288 278 278 266 262 263 270 272 264 261 262 262 266 268 273 275 272 279 273 273 281 286 286 283 279 278 275 268 270
179 178 179 185 193 201 208 214 221 228 237 239 237 238 238 243 254 259 262 268 272 262 281 297 304 310 279 276 262 275 276 269 263 263 261 262 268 271 275 278 270 276 275 272 273 290 283 289 294 296 293 283 268 264
180 184 191 198 202 207 215 218 222 225 224 230 247 252 250 246 252 255 266 265 269 279 290 300 302 308 289 191 277 303 284 261 257 270 272 274 276 258 272 274 282 278 274 274 285 290 287 288 290 289 285 271 270 264
186 193 202 204 205 209 212 212 206 213 224 240 239 242 244 240 241 253 265 276 273 284 291 305 312 246 268 297 294 281 265 263 271 273 273 277 262 265 273 274 295 293 287 286 284 286 281 282 283 282 278 277 273 268
193 197 199 199 199 198 199 202 209 214 229 221 233 223 217 235 259 265 260 273 280 285 290 280 286 294 303 295 283 284 293 274 268 270 276 272 269 259 263 300 314 302 294 289 294 290 283 282 278 276 272 268 269 269
191 192 189 185 184 188 191 196 203 216 211 225 205 201 234 242 241 258 270 272 281 279 278 276 285 296 293 287 291 290 287 274 281 270 264 264 254 243 295 300 297 301 302 310 305 302 290 281 275 273 271 269 270 271
190 187 185 186 185 188 189 190 197 213 221 182 196 228 225 223 253 277 291 291 286 281 276 294 321 298 299 299 297 297 280 259 259 271 266 238 266 295 306 313 306 310 311 307 308 305 303 295 284 264 260 258 262 267
192 189 189 190 189 190 180 202 203 189 194 192 220 210 215 259 284 293 270 264 275 271 272 307 330 328 319 309 299 289 266 276 260 272 241 262 286 301 305 321 321 326 318 319 314 306 303 298 291 277 256 253 258 265
192 193 193 192 194 193 197 196 197 194 191 204 197 204 249 279 265 250 248 267 265 264 287 316 321 317 317 317 286 267 254 249 252 264 260 257 302 349 344 334 333 330 330 330 322 320 315 321 308 282 271 250 243 249
191 193 194 195 194 190 190 192 183 193 191 178 188 244 257 238 248 240 256 291 290 304 313 310 310 307 302 294 237 245 245 242 263 248 246 285 343 339 336 333 334 336 337 334 334 337 336 330 324 289 250 223 209 214
190 190 190 190 184 184 188 190 193 212 198 196 216 240 240 232 237 276 297 302 312 312 318 330 329 309 287 254 242 246 248 252 250 299 342 335 337 338 341 338 336 338 340 337 339 349 357 347 1 81 121 147 169 191
181 180 178 181 183 189 194 195 208 207 203 210 231 235 242 255 281 298 308 309 307 317 331 338 340 321 274 237 257 256 247 236 173 342 336 339 340 338 337 336 336 341 343 342 338 350 351 357 41 105 134 159 194 266
172 174 177 179 186 192 190 188 202 204 216 230 241 224 232 287 303 308 305 305 316 323 333 339 324 299 285 275 277 247 269 38 336 341 338 336 338 336 335 334 338 344 344 343 337 343 338 358 345 248 222 241 278 209
171 177 178 179 186 189 186 194 212 219 227 231 238 226 286 292 308 312 319 320 317 319 327 327 288 252 293 278 270 303 321 330 334 332 332 336 339 341 342 340 339 343 346 345 327 340 14 354 345 315 280 265 222 165
171 177 181 187 194 193 199 210 229 246 252 258 268 275 278 291 299 304 315 311 306 304 306 296 288 283 261 259 277 293 293 308 316 318 324 328 333 344 351 353 349 345 345 346 320 298 299 312 311 302 265 195 199 204
162 165 170 187 197 209 220 236 249 265 273 276 265 271 274 290 301 298 301 302 299 296 291 293 274 269 280 283 290 293 299 303 308 314 310 313 316 322 330 337 345 349 349 344 339 297 268 275 289 283 247 222 210 206
157 163 176 184 198 215 224 252 258 257 261 259 274 277 286 305 306 305 301 292 290 290 289 275 287 289 291 293 291 292 301 307 312 312 311 310 310 312 315 319 323 328 334 339 336 327 284 260 251 264 261 246 235 231
173 182 191 201 212 222 233 249 252 264 276 280 289 292 299 300 302 303 302 296 296 295 295 294 290 293 295 297 300 302 305 305 301 310 310 311 314 315 316 315 312 313 314 316 322 325 316 276 251 237 255 255 247 249
176 190 209 226 234 244 253 252 258 271 274 282 291 298 301 307 316 321 316 316 316 314 296 297 297 295 294 295 302 300 302 301 295 298 304 306 309 311 313 314 311 310 308 304 303 308 315 315 261 246 238 250 250 246
225 244 251 254 255 257 265 268 264 271 271 283 293 294 297 301 307 313 303 307 320 315 298 289 289 290 291 293 295 295 284 290 291 294 299 301 304 310 313 314 310 307 304 298 294 294 298 304 296 255 246 243 249 247
274 272 280 261 244 248 266 270 276 275 276 277 281 287 292 297 299 294 290 294 314 315 312 298 294 293 291 286 281 280 282 286 293 297 306 305 305 311 310 307 306 304 300 298 292 287 285 288 288 276 257 251 246 247
274 276 251 257 255 255 265 277 285 284 278 283 285 282 284 293 285 282 291 301 295 299 305 301 298 292 278 274 273 278 285 300 306 307 314 315 311 304 302 301 301 301 297 293 287 284 281 278 276 272 266 257 251 249
252 249 236 251 256 267 277 282 293 293 293 290 278 281 271 285 283 282 292 287 285 291 294 297 296 281 270 287 288 293 304 304 305 308 311 311 303 300 300 299 298 295 292 290 287 283 276 270 268 266 265 263 253 246
243 249 260 268 274 279 283 287 291 289 274 272 282 287 288 279 282 289 291 276 286 294 293 291 288 287 289 291 295 298 302 304 305 305 304 301 300 301 302 303 302 300 296 294 289 283 278 270 262 261 263 261 261 256
254 258 265 273 273 279 282 284 285 287 288 288 289 279 274 277 284 282 277 282 288 291 290 291 285 285 295 299 301 302 300 298 296 296 298 301 303 302 301 301 302 300 298 296 295 292 284 277 271 261 259 261 261 257
257 266 272 275 280 284 289 293 291 284 281 278 277 277 280 284 289 295 295 293 293 291 288 287 289 294 299 296 296 294 293 297 303 302 302 302 301 300 298 299 298 297 291 289 287 288 285 278 275 270 261 259 259 259
266 271 274 280 287 293 296 289 283 279 279 284 288 290 292 296 298 294 299 299 297 294 293 292 288 283 278 280 284 302 309 309 308 308 308 308 308 308 307 304 303 299 289 289 289 287 282 273 271 270 263 256 258 257
272 287 295 302 302 303 297 295 294 299 306 306 304 300 301 304 306 311 314 317 310 298 289 281 270 264 274 292 300 303 312 317 321 321 319 315 314 313 313 307 303 298 290 294 292 290 285 275 268 265 257 254 257 254
292 300 304 303 303 303 306 307 309 315 320 319 318 311 311 321 330 341 342 335 318 297 262 251 268 289 299 308 315 316 316 318 320 320 319 317 315 313 312 310 303 292 289 294 291 288 282 279 271 262 253 247 250 245
303 307 307 305 309 315 321 317 320 324 332 326 315 328 312 314 323 327 325 328 300 288 289 295 298 300 305 310 312 312 311 311 311 313 312 312 310 309 309 309 306 297 295 299 296 290 280 276 271 264 251 249 249 245
Height
2934 2938 2943 2947 2951 2955 2959 2963 2966 2969 2972 2974 2977 2979 2980 2982 2984 2986 2987 2987 2988 2988 2989 2988 2989 2989 2989 2989 2989 2989 2988 2986 2986 2986 2985 2983 2981 2979 2978 2976 2976 2977 2975 2970 2969 2966 2957 2960 2957 2959 2954 2953 2951 2949
2933 2938 2942 2946 2950 2954 2958 2961 2965 2968 2970 2972 2975 2977 2978 2980 2981 2982 2984 2983 2984 2984 2984 2984 2983 2983 2983 2984 2983 2981 2982 2982 2982 2981 2980 2978 2976 2975 2973 2966 2970 2966 2966 2963 2962 2953 2951 2949 2948 2948 2947 2944 2941 2941
2932 2936 2941 2945 2949 2952 2956 2960 2963 2966 2968 2971 2973 2974 2976 2977 2978 2979 2980 2980 2979 2978 2978 2977 2977 2978 2978 2977 2975 2975 2975 2975 2975 2975 2974 2972 2970 2970 2964 2959 2957 2956 2956 2952 2951 2937 2939 2939 2937 2935 2935 2933 2929 2929
2932 2936 2940 2944 2948 2951 2955 2958 2961 2964 2967 2968 2970 2971 2973 2973 2974 2975 2976 2976 2976 2975 2972 2973 2973 2973 2971 2969 2968 2968 2969 2968 2968 2968 2966 2963 2963 2961 2954 2952 2949 2946 2947 2943 2935 2930 2929 2926 2924 2921 2920 2919 2918 2918
2932 2936 2940 2943 2947 2950 2953 2956 2959 2962 2963 2965 2967 2968 2969 2970 2971 2971 2972 2972 2972 2974 2968 2967 2965 2965 2964 2963 2963 2963 2962 2961 2960 2959 2957 2955 2956 2953 2943 2943 2926 2938 2933 2932 2920 2920 2922 2916 2914 2913 2910 2908 2909 2909
2931 2935 2939 2943 2946 2949 2952 2955 2957 2959 2961 2963 2964 2964 2965 2966 2967 2968 2968 2968 2967 2966 2965 2962 2961 2960 2958 2958 2959 2958 2956 2954 2954 2952 2949 2945 2946 2946 2935 2928 2919 2927 2926 2923 2915 2913 2910 2906 2904 2902 2901 2900 2900 2900
2931 2934 2938 2941 2944 2947 2950 2953 2955 2957 2959 2960 2961 2962 2962 2963 2965 2966 2966 2965 2964 2963 2962 2959 2957 2957 2956 2956 2954 2952 2950 2949 2948 2945 2939 2938 2940 2937 2928 2917 2908 2918 2914 2910 2906 2902 2897 2897 2894 2893 2892 2891 2891 2891
2930 2934 2937 2940 2943 2946 2949 2951 2953 2955 2956 2958 2959 2960 2961 2962 2962 2962 2961 2961 2961 2960 2959 2957 2954 2953 2952 2950 2949 2947 2946 2944 2940 2937 2933 2930 2931 2929 2915 2907 2906 2905 2903 2898 2894 2891 2886 2883 2881 2881 2882 2882 2881 2881
2930 2933 2936 2938 2942 2945 2948 2950 2952 2953 2954 2956 2957 2958 2959 2960 2960 2959 2959 2958 2957 2960 2955 2952 2950 2949 2947 2946 2945 2942 2940 2935 2932 2926 2925 2924 2921 2914 2907 2905 2901 2897 2893 2888 2884 2880 2876 2873 2871 2871 2870 2870 2870 2871
2928 2931 2935 2938 2941 2944 2946 2948 2950 2952 2953 2954 2956 2957 2957 2958 2958 2958 2957 2955 2953 2951 2949 2946 2946 2945 2945 2943 2940 2939 2933 2930 2924 2920 2919 2914 2909 2906 2901 2898 2894 2891 2886 2881 2874 2867 2863 2858 2856 2857 2859 2860 2861 2861
2928 2931 2934 2937 2940 2943 2945 2947 2949 2951 2952 2954 2955 2956 2957 2957 2956 2955 2954 2953 2952 2949 2946 2945 2944 2943 2941 2939 2935 2933 2928 2925 2919 2916 2913 2908 2904 2901 2898 2894 2890 2884 2878 2873 2865 2857 2851 2846 2843 2843 2846 2849 2851 2852
2927 2930 2933 2936 2939 2941 2944 2946 2948 2950 2952 2954 2955 2955 2955 2955 2954 2954 2952 2951 2949 2948 2944 2941 2939 2936 2933 2930 2928 2926 2923 2920 2915 2912 2910 2905 2902 2898 2894 2889 2883 2877 2871 2864 2856 2849 2845 2840 2836 2835 2834 2836 2841 2844
2926 2929 2932 2935 2938 2940 2943 2945 2947 2949 2951 2953 2954 2954 2954 2954 2953 2951 2950 2949 2947 2945 2941 2937 2934 2931 2927 2924 2924 2922 2919 2915 2913 2909 2905 2902 2899 2895 2888 2883 2878 2871 2866 2858 2851 2846 2841 2836 2832 2830 2830 2833 2836 2840
2925 2928 2931 2934 2937 2940 2942 2944 2946 2949 2951 2952 2952 2952 2952 2951 2950 2949 2949 2947 2945 2941 2937 2932 2928 2926 2923 2922 2920 2918 2915 2912 2908 2904 2904 2900 2895 2890 2885 2879 2873 2867 2861 2855 2849 2845 2841 2837 2834 2832 2833 2835 2838 2840
2925 2928 2931 2934 2937 2939 2941 2944 2946 2948 2949 2950 2951 2949 2948 2949 2948 2947 2946 2943 2941 2937 2933 2929 2925 2922 2920 2919 2917 2914 2910 2906 2904 2905 2901 2895 2890 2885 2881 2875 2870 2864 2858 2853 2849 2845 2842 2839 2837 2837 2837 2839 2840 2840
2925 2928 2931 2934 2937 2939 2941 2943 2945 2946 2947 2948 2947 2946 2946 2947 2946 2945 2942 2940 2937 2935 2932 2928 2924 2921 2918 2917 2914 2909 2906 2905 2905 2900 2896 2892 2887 2882 2877 2872 2867 2862 2857 2851 2848 2846 2843 2841 2840 2839 2839 2839 2839 2838
2927 2929 2932 2934 2936 2939 2941 2943 2944 2945 2945 2943 2942 2943 2944 2943 2942 2941 2939 2936 2934 2932 2930 2927 2924 2921 2918 2914 2911 2907 2905 2902 2899 2897 2894 2889 2885 2879 2874 2870 2865 2860 2856 2851 2847 2846 2844 2842 2841 2839 2838 2839 2839 2840
2928 2930 2933 2935 2936 2938 2940 2941 2943 2942 2939 2940 2940 2940 2940 2939 2938 2937 2935 2933 2930 2928 2926 2925 2922 2918 2915 2911 2908 2905 2902 2900 2897 2894 2891 2887 2883 2878 2873 2868 2864 2859 2854 2850 2846 2845 2843 2843 2841 2840 2840 2840 2841 2842
2930 2932 2934 2935 2937 2939 2940 2941 2940 2938 2936 2936 2936 2936 2935 2935 2934 2932 2930 2927 2925 2922 2920 2918 2916 2911 2909 2905 2903 2900 2897 2894 2892 2889 2886 2883 2879 2875 2871 2867 2862 2858 2853 2849 2845 2843 2842 2841 2841 2840 2840 2840 2841 2841
2931 2933 2934 2935 2936 2938 2939 2938 2937 2934 2932 2932 2932 2931 2930 2930 2928 2925 2923 2920 2918 2916 2913 2910 2908 2906 2903 2900 2897 2895 2892 2888 2884 2881 2880 2877 2873 2870 2866 2862 2858 2855 2851 2848 2844 2841 2839 2838 2838 2838 2838 2838 2839 2839
2933 2933 2934 2935 2935 2936 2936 2934 2932 2930 2929 2928 2927 2925 2924 2923 2920 2918 2916 2914 2912 2909 2905 2903 2901 2898 2896 2893 2890 2888 2884 2881 2878 2874 2870 2867 2867 2863 2859 2856 2853 2850 2847 2844 2841 2838 2835 2834 2833 2833 2833 2834 2835 2835
2933 2933 2934 2933 2933 2932 2931 2929 2928 2926 2925 2923 2921 2919 2916 2915 2913 2911 2908 2906 2903 2901 2898 2895 2893 2890 2887 2884 2882 2879 2877 2873 2871 2868 2864 2860 2857 2856 2853 2849 2845 2842 2839 2837 2834 2832 2830 2827 2826 2827 2827 2828 2829 2830
2932 2932 2931 2931 2930 2927 2926 2923 2922 2920 2919 2916 2915 2913 2910 2908 2906 2904 2901 2898 2895 2893 2890 2886 2883 2881 2879 2876 2874 2871 2868 2865 2863 2861 2858 2853 2850 2847 2842 2840 2836 2832 2830 2828 2826 2824 2823 2821 2819 2819 2820 2821 2822 2823
2929 2929 2927 2925 2923 2921 2918 2917 2916 2914 2912 2910 2908 2905 2903 2901 2898 2894 2890 2889 2887 2883 2879 2876 2873 2870 2869 2867 2864 2862 2859 2856 2853 2851 2849 2844 2840 2838 2834 2830 2827 2824 2820 2819 2817 2816 2815 2814 2812 2811 2811 2812 2813 2814
2928 2926 2923 2919 2917 2915 2913 2911 2910 2909 2906 2904 2902 2899 2896 2894 2890 2886 2882 2880 2877 2873 2870 2867 2864 2861 2859 2857 2855 2853 2850 2846 2843 2841 2840 2834 2830 2826 2824 2822 2819 2816 2812 2809 2808 2806 2806 2805 2804 2803 2802 2803 2803 2805
2922 2919 2917 2913 2913 2912 2910 2907 2906 2904 2900 2897 2893 2891 2887 2884 2881 2875 2874 2870 2867 2864 2861 2859 2856 2853 2850 2846 2843 2841 2839 2836 2833 2830 2829 2825 2821 2816 2813 2810 2808 2808 2804 2801 2798 2796 2796 2795 2794 2794 2793 2793 2794 2795
2914 2912 2910 2910 2909 2907 2904 2901 2899 2896 2892 2887 2885 2883 2880 2875 2870 2869 2865 2859 2857 2855 2851 2848 2845 2841 2838 2835 2832 2829 2826 2823 2820 2818 2816 2814 2811 2806 2802 2799 2796 2794 2792 2790 2788 2786 2785 2785 2785 2784 2784 2784 2784 2785
2905 2903 2904 2904 2902 2900 2897 2894 2891 2888 2884 2880 2876 2872 2868 2864 2862 2860 2853 2849 2846 2841 2835 2832 2829 2827 2825 2822 2819 2817 2815 2812 2809 2807 2806 2804 2801 2796 2792 2789 2786 2783 2780 2778 2776 2775 2774 2774 2773 2773 2774 2774 2774 2775
2897 2897 2897 2896 2894 2891 2888 2886 2882 2879 2873 2869 2863 2858 2852 2850 2845 2839 2834 2830 2828 2825 2821 2820 2818 2816 2814 2811 2809 2807 2805 2802 2800 2798 2795 2793 2791 2790 2784 2780 2777 2774 2771 2769 2767 2764 2762 2762 2762 2762 2762 2763 2764 2765
2892 2891 2888 2886 2884 2881 2880 2875 2870 2866 2862 2859 2853 2843 2838 2835 2831 2824 2821 2817 2814 2811 2809 2808 2807 2806 2806 2805 2803 2801 2798 2796 2792 2789 2785 2783 2780 2777 2773 2770 2767 2764 2761 2759 2756 2755 2754 2752 2751 2751 2751 2753 2754 2754
2885 2883 2879 2876 2872 2870 2865 2860 2856 2852 2849 2844 2839 2831 2826 2822 2819 2816 2813 2810 2806 2804 2803 2802 2801 2800 2799 2798 2797 2796 2793 2790 2786 2783 2778 2774 2770 2767 2763 2760 2757 2754 2751 2749 2747 2745 2743 2742 2742 2741 2742 2743 2744 2745
2877 2874 2870 2864 2860 2857 2853 2848 2843 2841 2838 2833 2829 2824 2821 2818 2816 2813 2810 2806 2803 2802 2800 2799 2797 2796 2795 2793 2791 2788 2785 2782 2779 2775 2770 2766 2762 2758 2754 2751 2748 2745 2743 2741 2739 2736 2735 2733 2733 2733 2734 2735 2736 2737
2864 2862 2859 2855 2850 2846 2843 2839 2834 2829 2828 2825 2823 2821 2818 2816 2813 2810 2807 2805 2803 2801 2799 2797 2795 2793 2790 2788 2785 2781 2778 2775 2771 2767 2762 2757 2752 2748 2744 2741 2739 2736 2734 2732 2730 2728 2727 2726 2726 2726 2726 2727 2729 2730